Location: General Nathan Twining Observatory
(34.5931°N, 106.8201°W)
Time: 16:43:26
(UTC-07:00)

Daily predictions for brighter satellites

Satellite Brightness Start Highest point End
(mag) Time Altitude Azimuth Time Altitude Azimuth Time Altitude Azimuth
ATLAS 2AS CENTAUR R/B 3.1 17:16:23 10° SSW 17:23:54 71° ESE 17:31:57 10° NE
Aureole 1 Rocket 4.4 17:18:16 10° N 17:24:07 49° ENE 17:31:29 10° SE
Meteor 1-28 Rocket 3.3 17:24:07 10° NNE 17:27:49 57° E 17:31:32 10° S
Cosmos 1743 3.6 17:27:04 10° NNE 17:30:28 29° E 17:33:52 10° SE
Cosmos 1455 Rocket 4.0 17:28:08 10° NNE 17:31:54 27° ENE 17:35:38 10° SE
CSL-04 Rocket 3.7 17:27:28 10° SSE 17:32:50 80° ENE 17:38:19 10° N
YAOGAN 1 3.2 17:31:34 10° SE 17:35:25 32° ENE 17:39:17 10° N
Cosmos 1544 Rocket 4.2 17:31:44 10° NNE 17:35:40 32° E 17:39:32 10° SE
Okean 1 3.7 17:32:27 10° SSW 17:36:24 68° W 17:40:21 10° N
ATLAS 3B R/B 3.6 17:32:12 10° N 17:37:31 25° NE 17:42:43 10° E
PSLV R/B 3.2 17:34:26 10° SW 17:37:33 65° SSE 17:40:18 13° ENE
Cosmos 1697 Rocket 4.3 17:35:09 10° SE 17:38:17 15° E 17:41:03 11° ENE
Atlas Centaur 2 2.3 17:35:09 10° WSW 17:40:16 50° S 17:44:23 10° ESE
USA 215 3.4 17:35:12 10° SE 17:41:46 84° SW 17:48:19 10° NW
Cosmos 1607 4.0 17:36:54 10° NNW 17:43:25 77° ENE 17:49:49 10° SSE
Cosmos 2279 Rocket 4.1 17:39:01 10° S 17:45:16 90° W 17:51:34 10° N
Delta 2 Rocket 3.9 17:41:26 10° W 17:47:01 79° N 17:51:26 14° E
METEOR-M 4.4 17:44:04 10° SE 17:49:08 46° ENE 17:54:12 10° N
ATLAS CENTAUR R/B 4.1 17:46:34 10° WNW 17:49:53 24° WSW 17:53:21 10° SSW
Cosmos 389 Rocket 2.4 17:47:20 10° N 17:50:47 61° E 17:54:11 10° SSE
COSMO-SKYMED 1 2.8 17:48:04 10° NNE 17:52:16 48° E 17:56:27 10° S
Cosmos 1975 3.0 17:49:04 10° N 17:53:06 79° W 17:57:09 10° S
Landsat 4 3.7 17:49:24 10° NNE 17:53:12 63° ESE 17:56:58 10° S
Ariane Rocket 3.3 17:50:09 10° S 17:55:11 71° WSW 18:00:15 10° NNW
USA 116 3.2 17:52:00 10° N 17:55:13 78° WNW 17:58:18 10° SSW
CZ-4 R/B 1.2 17:53:20 10° SSE 17:57:09 89° SSW 18:01:03 10° NNW
Cosmos 1271 Rocket 2.7 17:53:33 10° N 17:57:17 56° E 18:01:03 10° SSE
Cosmos 1484 Rocket 3.8 17:53:43 10° S 17:57:36 52° W 18:01:32 10° NNW
Cosmos 1975 Rocket 4.4 17:55:18 10° SSW 17:59:30 41° W 18:03:46 10° N
Cosmos 2227 Rocket 2.9 17:55:16 10° N 18:00:17 31° ENE 18:05:15 10° ESE
Cosmos 2219 3.2 17:55:59 10° NNW 18:01:37 90° NNW 18:07:14 10° SSE
Cosmos 1125 Rocket 3.8 17:59:15 10° S 18:04:20 49° ESE 18:08:57 13° NNE
SJ 16-02 1.7 18:02:12 10° S 18:06:20 43° ESE 18:09:14 18° NE
Meteor 2-9 Rocket 4.2 18:05:27 10° N 18:10:50 51° E 18:16:02 10° SSE
ERS-2 2.3 18:08:36 10° SSE 18:12:08 48° ENE 18:15:41 10° N
DELTA 2 R/B (1) 3.8 18:07:46 10° W 18:13:15 58° N 18:16:30 24° ENE
NOSS 8 (A) 4.2 18:10:56 10° SSW 18:14:25 75° ESE 18:15:46 32° NE
Cosmos 1980 Rocket 3.5 18:13:24 10° SE 18:17:02 19° ESE 18:17:02 19° ESE
BREEZE-M DEB (TANK) 4.2 18:15:39 10° WNW 18:18:24 44° SW 18:25:41 10° SE
Meteor 1-13 Rocket 4.5 18:15:42 10° SSW 18:21:12 70° W 18:26:51 10° N
Cosmos 1536 Rocket 3.8 18:23:14 10° SSW 18:27:35 71° W 18:31:56 10° N
Cosmos 2297 Rocket 2.4 18:22:21 10° N 18:27:45 45° ENE 18:33:08 10° SE
Cosmos 1666 3.7 18:27:01 10° NNW 18:30:36 45° W 18:34:10 10° SSW
Meteor 2-4 Rocket 3.8 18:26:20 10° SSW 18:31:50 74° W 18:37:15 10° N
USA 238 DEB 3.8 18:28:36 10° NNW 18:35:39 61° NE 18:42:44 10° SE
USA 238 3.8 18:28:42 10° NNW 18:35:45 61° NE 18:42:50 10° SE
Cosmos 1025 Rocket 3.2 18:32:40 10° SSE 18:36:35 46° ESE 18:36:35 46° ESE
ALOS 2.2 18:34:03 10° SSE 18:38:43 89° E 18:43:24 10° NNW
Cosmos 372 Rocket 4.0 18:34:13 10° SSW 18:39:26 79° WNW 18:43:11 19° NNE
Meteor 1-15 Rocket 4.4 18:33:39 10° N 18:39:27 54° ENE 18:45:12 10° SSE
Hubble Space Telescope 1.9 18:39:18 10° WSW 18:43:04 34° S 18:44:04 30° SSE
ISS -1.3 18:41:33 10° NNW 18:42:09 14° NNW 18:42:09 14° NNW
GOES 2 Rocket 4.2 18:45:51 10° WSW 18:50:23 43° S 18:52:00 34° SE
Cosmos 2266 Rocket 4.1 18:44:25 10° N 18:50:29 73° W 18:56:37 10° S
Cosmos 1656 3.8 18:45:05 10° SSW 18:50:40 72° WNW 18:53:57 25° NNE
Cosmos 2369 4.1 18:46:07 10° SSW 18:51:41 60° WNW 18:55:39 20° N
Cosmos 2278 4.1 18:48:17 10° SSW 18:53:52 61° WNW 18:57:37 21° N
Gbstr 26 Del rocket 4.3 18:46:05 10° SW 18:54:10 90° SE 18:57:10 41° NE
SPOT 3 Rocket 4.1 18:55:33 10° S 19:00:39 57° W 19:05:45 10° NNW
Skynet4D Del rocket 4.5 19:01:38 10° WSW 19:06:48 36° S 19:07:26 34° SSE
NOSS 3-2 (A) 4.0 18:59:40 10° NNW 19:07:14 59° NE 19:09:08 48° ESE
NOSS 3-2 (C) 4.2 19:04:48 10° NNW 19:11:54 49° NE 19:11:54 49° NE
FengYun 1-2 T 4.1 19:08:57 10° SSE 19:14:32 89° ENE 19:20:12 10° NNW
Thor Agena Rocket 3.6 19:19:09 75° NW 19:19:21 76° WNW 19:24:36 10° SSW
Cosmos 1244 Rocket 4.3 19:13:42 10° N 19:19:52 84° E 19:26:02 10° S
Cosmos 1697 Rocket 3.1 19:16:05 10° SSW 19:21:39 59° WNW 19:22:51 48° NNW
Cosmos 724 4.3 19:19:24 10° NNW 19:24:30 70° NW 19:24:30 70° NW
ATLAS 3B R/B 3.0 19:22:08 10° NW 19:28:36 59° WSW 19:33:23 18° S
Atlas Centaur 2 3.2 19:24:41 10° W 19:27:20 27° SW 19:27:20 27° SW
Cosmos 2082 4.3 19:24:00 10° NNW 19:29:28 54° WSW 19:34:55 10° S
Atlas 2A Centaur Rocket 4.3 19:23:24 10° W 19:29:51 21° SW 19:31:09 18° SSW
NOSS 3-4 (A) 3.8 19:29:57 10° SW 19:36:01 58° NW 19:36:35 56° NNW
NOSS 3-4 (C) 3.8 19:30:01 10° SW 19:36:07 59° NW 19:36:38 57° NW
Cosmos 1553 Rocket 4.3 19:31:10 10° S 19:36:11 58° S 19:36:11 58° S
Cosmos 2227 Rocket 3.9 19:39:20 10° NW 19:44:12 30° WSW 19:49:02 10° SSW
SJ 16-02 4.1 19:42:52 10° W 19:45:07 14° WNW 19:46:18 13° NW
Cosmos 1980 Rocket 3.6 19:55:24 10° SW 19:58:52 34° WSW 19:58:52 34° WSW
Cosmos 2297 Rocket 4.5 20:07:20 10° NW 20:11:23 20° W 20:15:26 10° SSW
